OK1FET-5 Weather Reports


Display with metric or nautical units.
time (UTC)temp
F
wind
direction
speed
MPH
gust
MPH
rain 1hr
in
rain 24hr
in
rain mn
in
humidity
%
barometer
mb
20260904095621 76 265 7.0 15.0 0.00 0.00 0.00 55 1016.9
20260904094626 77 267 6.0 12.0 0.00 0.00 0.00 55 1017.1
20260904093630 76 256 5.0 11.0 0.00 0.00 0.00 56 1017.0
20260904091638 75 258 6.0 14.0 0.00 0.00 0.00 58 1017.4
20260904090642 76 227 6.0 13.0 0.00 0.00 0.00 57 1017.4
20260904085647 76 206 10.0 28.0 0.00 0.00 0.00 57 1017.5
20260904084651 77 221 8.0 19.0 0.00 0.00 0.00 55 1017.5
20260904083655 77 242 7.0 16.0 0.00 0.00 0.00 55 1017.6
20260904082659 76 254 9.0 16.0 0.00 0.00 0.00 57 1017.8
20260904081704 76 250 8.0 17.0 0.00 0.00 0.00 56 1018.0
20260904080708 78 236 6.0 10.0 0.00 0.00 0.00 54 1018.1
20260904075712 79 239 5.0 11.0 0.00 0.00 0.00 53 1018.3
20260904074716 76 242 6.0 12.0 0.00 0.00 0.00 57 1018.3
20260904073720 74 250 6.0 10.0 0.00 0.00 0.00 60 1018.3
20260904072725 72 238 6.0 11.0 0.00 0.00 0.00 62 1018.3
20260904071729 72 243 4.0 11.0 0.00 0.00 0.00 63 1018.4
20260904070733 71 245 5.0 11.0 0.00 0.00 0.00 64 1018.3
20260904065737 70 237 5.0 10.0 0.00 0.00 0.00 66 1018.4
20260904064742 68 239 5.0 11.0 0.00 0.00 0.00 68 1018.5
20260904063746 67 247 5.0 10.0 0.00 0.00 0.00 70 1018.7
20260904062750 66 241 7.0 12.0 0.00 0.00 0.00 71 1018.7
20260904061754 66 244 5.0 11.0 0.00 0.00 0.00 73 1018.5
20260904060759 66 243 5.0 9.0 0.00 0.00 0.00 73 1018.6
20260904055803 65 248 6.0 12.0 0.00 0.00 0.00 74 1018.6
20260904054807 65 240 3.0 6.0 0.00 0.00 0.00 75 1018.6
20260904053811 64 240 4.0 9.0 0.00 0.00 0.00 76 1018.7
20260904052815 64 238 4.0 9.0 0.00 0.00 0.00 76 1018.7
20260904051820 63 240 4.0 6.0 0.00 0.00 0.00 77 1018.8
20260904050824 63 239 3.0 8.0 0.00 0.00 0.00 78 1019.0
20260904045828 63 232 4.0 9.0 0.00 0.00 0.00 78 1018.9
20260904044832 63 239 4.0 12.0 0.00 0.00 0.00 79 1018.8
20260904043837 63 250 4.0 10.0 0.00 0.00 0.00 79 1018.9
20260904042841 63 260 5.0 8.0 0.00 0.00 0.00 79 1019.1
20260904041845 62 260 5.0 9.0 0.00 0.00 0.00 80 1019.2
20260904040849 62 273 2.0 5.0 0.00 0.00 0.00 79 1019.0
20260904035854 62 264 3.0 7.0 0.00 0.00 0.00 79 1019.0
20260904034858 62 245 4.0 9.0 0.00 0.00 0.00 79 1019.0
20260904032906 62 239 4.0 8.0 0.00 0.00 0.00 78 1018.9
20260904031911 62 248 3.0 7.0 0.00 0.00 0.00 78 1018.9
20260904030915 62 242 2.0 5.0 0.00 0.00 0.00 77 1019.0
20260904025919 62 251 3.0 7.0 0.00 0.00 0.00 78 1019.1
20260904024923 62 248 3.0 6.0 0.00 0.00 0.00 78 1019.3
20260904023928 62 267 3.0 5.0 0.00 0.00 0.00 79 1019.2
20260904022932 61 286 2.0 4.0 0.00 0.00 0.00 79 1019.3
20260904021936 61 292 2.0 4.0 0.00 0.00 0.00 79 1019.3
20260904020940 61 279 3.0 5.0 0.00 0.00 0.00 79 1019.4
20260904015945 61 273 3.0 5.0 0.00 0.00 0.00 79 1019.5
20260904014949 60 279 2.0 4.0 0.00 0.00 0.00 78 1019.6
20260904013953 61 286 1.0 3.0 0.00 0.00 0.00 78 1019.5
20260904012957 61 285 1.0 4.0 0.00 0.00 0.00 77 1019.5
20260904012002 61 288 1.0 2.0 0.00 0.00 0.00 77 1019.3
20260904011006 61 279 1.0 3.0 0.00 0.00 0.00 77 1019.4
20260904010010 62 278 2.0 4.0 0.00 0.00 0.00 77 1019.6
20260904005014 62 288 1.0 2.0 0.00 0.00 0.00 77 1019.6
20260904004019 62 279 3.0 4.0 0.00 0.00 0.00 77 1019.7
20260904003023 62 277 3.0 4.0 0.00 0.00 0.00 77 1019.6
20260904002027 62 282 3.0 6.0 0.00 0.00 0.00 77 1019.7
20260904001031 62 283 3.0 6.0 0.00 0.00 0.00 77 1019.8
20260904000035 62 278 2.0 5.0 0.00 0.00 0.00 76 1019.9
20260903235039 63 278 3.0 7.0 0.00 0.00 0.00 76 1019.9
20260903234044 63 276 4.0 7.0 0.00 0.00 0.00 76 1020.0
20260903233048 63 267 4.0 8.0 0.00 0.00 0.00 75 1020.0
20260903232052 63 268 3.0 6.0 0.00 0.00 0.00 75 1020.1
20260903231056 63 265 4.0 8.0 0.00 0.00 0.00 74 1020.2
20260903230101 63 264 3.0 7.0 0.00 0.00 0.00 74 1020.2
20260903225105 63 265 4.0 8.0 0.00 0.00 0.00 74 1020.1
20260903224109 63 259 5.0 8.0 0.00 0.00 0.00 74 1020.2
20260903223113 63 267 4.0 8.0 0.00 0.00 0.00 73 1020.1
20260903222118 63 262 5.0 10.0 0.00 0.00 0.00 73 1020.0
20260903221122 63 250 4.0 7.0 0.00 0.00 0.00 73 1020.0
20260903215130 64 259 3.0 6.0 0.00 0.00 0.00 70 1020.3
20260903214135 64 246 2.0 5.0 0.00 0.00 0.00 70 1020.1
20260903213139 64 253 2.0 6.0 0.00 0.00 0.00 70 1020.2
20260903212143 64 244 2.0 6.0 0.00 0.00 0.00 70 1020.1
20260903211148 64 253 2.0 5.0 0.00 0.00 0.00 70 1020.3
20260903210152 64 254 2.0 4.0 0.00 0.00 0.00 71 1020.3
20260903205156 64 251 2.0 5.0 0.00 0.00 0.00 72 1020.5
20260903204200 64 254 2.0 7.0 0.00 0.00 0.00 71 1020.5
20260903203205 64 260 3.0 7.0 0.00 0.00 0.00 71 1020.6
20260903202209 64 265 3.0 6.0 0.00 0.00 0.00 71 1020.7
20260903201213 64 266 4.0 7.0 0.00 0.00 0.00 71 1020.8
20260903200217 64 271 3.0 5.0 0.00 0.00 0.00 71 1020.7
20260903195221 64 266 4.0 7.0 0.00 0.00 0.00 70 1020.7
20260903194226 64 261 4.0 6.0 0.00 0.00 0.00 70 1020.6
20260903193230 64 248 2.0 4.0 0.00 0.00 0.00 69 1020.5
20260903192234 64 255 2.0 7.0 0.00 0.00 0.00 69 1020.6
20260903191238 65 257 2.0 5.0 0.00 0.00 0.00 68 1020.6
20260903184251 65 270 3.0 6.0 0.00 0.00 0.00 67 1020.8
20260903182300 65 281 6.0 11.0 0.00 0.00 0.00 67 1020.9
20260903181304 65 284 6.0 10.0 0.00 0.00 0.00 67 1020.6
20260903180308 65 274 5.0 10.0 0.00 0.00 0.00 66 1020.5
20260903175312 66 280 7.0 12.0 0.00 0.00 0.00 65 1020.4
20260903174317 67 275 5.0 9.0 0.00 0.00 0.00 62 1020.4
20260903173321 67 274 6.0 14.0 0.00 0.00 0.00 61 1020.3
20260903172325 67 273 6.0 12.0 0.00 0.00 0.00 60 1020.3
20260903171329 68 280 9.0 13.0 0.00 0.00 0.00 59 1020.3
20260903170334 68 275 8.0 11.0 0.00 0.00 0.00 59 1020.1
20260903165338 69 290 7.0 11.0 0.00 0.00 0.00 58 1020.2
20260903164342 69 287 9.0 14.0 0.00 0.00 0.00 56 1020.3
20260903163346 70 276 10.0 15.0 0.00 0.00 0.00 55 1020.1
20260903162351 70 280 10.0 16.0 0.00 0.00 0.00 53 1019.8
20260903161355 71 274 10.0 15.0 0.00 0.00 0.00 52 1019.8
20260903160359 71 277 9.0 19.0 0.00 0.00 0.00 51 1019.7
20260903155403 72 278 9.0 17.0 0.00 0.00 0.00 50 1019.6
20260903154408 72 276 6.0 17.0 0.00 0.00 0.00 49 1019.7
20260903153412 72 263 5.0 13.0 0.00 0.00 0.00 48 1019.7
20260903152416 73 267 4.0 8.0 0.00 0.00 0.00 49 1019.7
20260903151420 73 270 5.0 9.0 0.00 0.00 0.00 47 1019.7
20260903150425 74 261 5.0 11.0 0.00 0.00 0.00 46 1019.7
20260903145429 75 251 4.0 8.0 0.00 0.00 0.00 45 1019.8
20260903144433 76 254 4.0 7.0 0.00 0.00 0.00 43 1019.9
20260903143437 77 249 3.0 7.0 0.00 0.00 0.00 43 1019.9
20260903142442 76 248 3.0 6.0 0.00 0.00 0.00 43 1019.8
20260903141446 76 262 3.0 11.0 0.00 0.00 0.00 43 1020.0
20260903140450 76 270 4.0 7.0 0.00 0.00 0.00 43 1020.1
20260903135454 76 257 3.0 5.0 0.00 0.00 0.00 43 1020.1
20260903134458 75 255 4.0 8.0 0.00 0.00 0.00 42 1020.2
20260903133503 76 261 5.0 11.0 0.00 0.00 0.00 41 1020.3
20260903132507 77 262 4.0 11.0 0.00 0.00 0.00 41 1020.6
20260903131511 78 259 4.0 9.0 0.00 0.00 0.00 39 1020.4
20260903130515 80 263 6.0 14.0 0.00 0.00 0.00 37 1020.3
20260903125520 79 267 5.0 9.0 0.00 0.00 0.00 38 1020.4
20260903124524 80 278 5.0 11.0 0.00 0.00 0.00 37 1020.3
20260903123528 81 266 5.0 10.0 0.00 0.00 0.00 37 1020.4
20260903122532 82 272 6.0 12.0 0.00 0.00 0.00 37 1020.4
20260903121537 79 266 5.0 14.0 0.00 0.00 0.00 39 1020.5
20260903120541 78 277 7.0 13.0 0.00 0.00 0.00 38 1020.5
20260903115545 79 272 5.0 10.0 0.00 0.00 0.00 39 1020.6
20260903114549 79 269 4.0 8.0 0.00 0.00 0.00 39 1020.8
20260903113553 78 244 4.0 10.0 0.00 0.00 0.00 38 1020.8
20260903112558 77 237 5.0 11.0 0.00 0.00 0.00 39 1020.8
20260903111602 76 257 3.0 7.0 0.00 0.00 0.00 41 1020.9
20260903105610 77 273 4.0 8.0 0.00 0.00 0.00 39 1021.3
20260903104615 77 281 5.0 9.0 0.00 0.00 0.00 39 1021.6
20260903103619 77 281 5.0 9.0 0.00 0.00 0.00 41 1021.6
20260903102623 77 281 4.0 8.0 0.00 0.00 0.00 41 1021.7
20260903101627 78 275 5.0 9.0 0.00 0.00 0.00 40 1021.7
20260903100632 81 262 3.0 7.0 0.00 0.00 0.00 37 1021.7